Time,TemperatureF,DewpointF,PressureIn,WindDirection,WindDirectionDegrees,WindSpeedMPH,WindSpeedGustMPH,Humidity,HourlyPrecipIn,Conditions,Clouds,dailyrainin,SoftwareType,DateUTC
2013-01-21 00:00:00,19.0,10.5,30.18,West,269,5.0,11.0,69,0.00,,---,0.00,VWS V14.01,2013-01-21 05:00:00,
2013-01-21 00:30:00,19.1,11.6,30.19,West,274,6.0,10.0,72,0.00,,---,0.00,VWS V14.00,2013-01-21 05:30:00,
2013-01-21 01:00:00,19.0,10.5,30.18,West,269,5.0,11.0,69,0.00,,---,0.00,VWS V14.00,2013-01-21 06:00:00,
2013-01-21 01:30:00,18.5,9.7,30.18,WSW,255,8.0,11.0,68,0.00,,---,0.00,VWS V14.00,2013-01-21 06:30:00,
2013-01-21 02:00:00,18.3,9.9,30.18,West,269,8.0,15.0,69,0.00,,---,0.00,VWS V14.00,2013-01-21 07:00:00,
2013-01-21 02:30:00,17.9,9.5,30.18,West,264,7.0,14.0,69,0.00,,---,0.00,VWS V14.00,2013-01-21 07:30:00,
2013-01-21 03:00:00,17.4,9.3,30.18,West,266,9.0,13.0,70,0.00,,---,0.00,VWS V14.00,2013-01-21 08:00:00,
2013-01-21 03:30:00,17.2,9.1,30.17,West,281,8.0,13.0,70,0.00,,---,0.00,VWS V14.00,2013-01-21 08:30:00,
2013-01-21 04:00:00,17.2,9.4,30.16,WNW,299,11.0,12.0,71,0.00,,---,0.00,VWS V14.00,2013-01-21 09:00:00,
2013-01-21 04:30:00,17.3,8.9,30.15,WNW,300,7.0,14.0,69,0.00,,---,0.00,VWS V14.00,2013-01-21 09:30:00,
2013-01-21 05:00:00,17.1,8.4,30.15,West,266,7.0,16.0,68,0.00,,---,0.00,VWS V14.00,2013-01-21 10:00:00,
2013-01-21 05:30:00,16.7,8.3,30.14,West,272,4.0,13.0,69,0.00,,---,0.00,VWS V14.00,2013-01-21 10:30:00,
2013-01-21 06:00:00,16.9,10.1,30.14,WNW,284,9.0,15.0,74,0.00,,---,0.00,VWS V14.00,2013-01-21 11:00:00,
2013-01-21 06:30:00,16.3,9.8,30.14,WNW,292,9.0,17.0,75,0.00,,---,0.00,VWS V14.00,2013-01-21 11:30:00,
2013-01-21 07:00:00,15.6,9.4,30.14,WNW,288,11.0,19.0,76,0.00,,---,0.00,VWS V14.00,2013-01-21 12:00:00,
2013-01-21 07:30:00,15.3,9.1,30.14,WNW,284,9.0,16.0,76,0.00,,---,0.00,VWS V14.00,2013-01-21 12:30:00,
2013-01-21 08:00:00,14.9,8.4,30.14,WNW,293,7.0,24.0,75,0.00,,---,0.00,VWS V14.00,2013-01-21 13:00:00,
2013-01-21 08:30:00,14.3,8.1,30.14,WSW,249,14.0,18.0,76,0.00,,---,0.00,VWS V14.00,2013-01-21 13:30:00,
2013-01-21 09:00:00,13.9,7.4,30.15,WNW,290,12.0,20.0,75,0.00,,---,0.00,VWS V14.00,2013-01-21 14:00:00,
2013-01-21 09:30:00,13.7,7.8,30.16,West,280,12.0,21.0,77,0.00,,---,0.00,VWS V14.00,2013-01-21 14:30:00,
2013-01-21 10:00:00,13.7,8.1,30.16,West,276,15.0,21.0,78,0.00,,---,0.00,VWS V14.00,2013-01-21 15:00:00,
2013-01-21 10:30:00,14.3,7.8,30.16,West,280,13.0,24.0,75,0.00,,---,0.00,VWS V14.00,2013-01-21 15:30:00,
2013-01-21 11:00:00,13.9,6.9,30.16,WNW,293,12.0,19.0,73,0.00,,---,0.00,VWS V14.00,2013-01-21 16:00:00,
2013-01-21 11:30:00,14.5,9.5,30.15,West,260,11.0,21.0,80,0.00,,---,0.00,VWS V14.00,2013-01-21 16:30:00,
2013-01-21 12:00:00,14.5,7.7,30.15,West,281,12.0,21.0,74,0.00,,---,0.00,VWS V14.00,2013-01-21 17:00:00,
2013-01-21 12:30:00,15.4,7.7,30.13,WSW,255,14.0,23.0,71,0.00,,---,0.00,VWS V14.00,2013-01-21 17:30:00,
2013-01-21 13:00:00,14.5,7.7,30.12,West,281,12.0,23.0,74,0.00,,---,0.00,VWS V14.00,2013-01-21 18:00:00,
2013-01-21 13:30:00,15.0,6.0,30.12,West,280,11.0,23.0,67,0.00,,---,0.00,VWS V14.00,2013-01-21 18:30:00,
2013-01-21 14:00:00,14.9,8.1,30.13,West,266,17.0,27.0,74,0.00,,---,0.00,VWS V14.00,2013-01-21 19:00:00,
2013-01-21 14:30:00,14.5,7.7,30.14,NW,308,12.0,21.0,74,0.00,,---,0.00,VWS V14.00,2013-01-21 19:30:00,
2013-01-21 15:00:00,14.3,4.4,30.14,West,259,15.0,21.0,64,0.00,,---,0.00,VWS V14.00,2013-01-21 20:00:00,
2013-01-21 15:30:00,14.3,5.0,30.15,WNW,288,14.0,25.0,66,0.00,,---,0.00,VWS V14.00,2013-01-21 20:30:00,
2013-01-21 16:00:00,13.8,7.1,30.17,NW,305,16.0,26.0,74,0.00,,---,0.00,VWS V14.00,2013-01-21 21:00:00,
2013-01-21 16:30:00,12.4,7.4,30.18,NW,311,14.0,23.0,80,0.00,,---,0.00,VWS V14.00,2013-01-21 21:30:00,
2013-01-21 17:00:00,11.9,5.5,30.19,WNW,293,13.0,21.0,75,0.00,,---,0.00,VWS V14.00,2013-01-21 22:00:00,
2013-01-21 17:30:00,11.1,5.0,30.19,West,281,11.0,19.0,76,0.00,,---,0.00,VWS V14.00,2013-01-21 22:30:00,
2013-01-21 18:00:00,10.9,3.4,30.20,West,270,12.0,18.0,71,0.00,,---,0.00,VWS V14.00,2013-01-21 23:00:00,
2013-01-21 18:30:00,10.3,2.2,30.21,West,278,10.0,20.0,69,0.00,,---,0.00,VWS V14.00,2013-01-21 23:30:00,
2013-01-21 19:00:00,10.3,2.8,30.21,WNW,285,11.0,19.0,71,0.00,,---,0.00,VWS V14.00,2013-01-22 00:00:00,
2013-01-21 19:30:00,9.9,1.5,30.21,WNW,287,11.0,19.0,68,0.00,,---,0.00,VWS V14.00,2013-01-22 00:30:00,
2013-01-21 20:00:00,9.8,2.0,30.21,West,266,12.0,17.0,70,0.00,,---,0.00,VWS V14.00,2013-01-22 01:00:00,
2013-01-21 20:30:00,9.4,1.3,30.22,WNW,285,12.0,18.0,69,0.00,,---,0.00,VWS V14.00,2013-01-22 01:30:00,
2013-01-21 21:00:00,9.4,1.6,30.22,West,276,12.0,22.0,70,0.00,,---,0.00,VWS V14.00,2013-01-22 02:00:00,
2013-01-21 21:30:00,9.0,0.6,30.23,West,276,8.0,20.0,68,0.00,,---,0.00,VWS V14.00,2013-01-22 02:30:00,
2013-01-21 22:00:00,9.0,1.5,30.24,West,264,17.0,20.0,71,0.00,,---,0.00,VWS V14.00,2013-01-22 03:00:00,
2013-01-21 22:30:00,8.6,0.8,30.24,West,276,13.0,21.0,70,0.00,,---,0.00,VWS V14.00,2013-01-22 03:30:00,
2013-01-21 23:00:00,8.6,1.1,30.25,WNW,282,17.0,23.0,71,0.00,,---,0.00,VWS V14.00,2013-01-22 04:00:00,
2013-01-21 23:30:00,8.3,1.1,30.26,WNW,290,13.0,20.0,72,0.00,,---,0.00,VWS V14.00,2013-01-22 04:30:00,